TimeCDT,TemperatureF,Dew PointF,Humidity,Sea Level PressureIn,VisibilityMPH,Wind Direction,Wind SpeedMPH,Gust SpeedMPH,PrecipitationIn,Events,Conditions,WindDirDegrees,DateUTC
12:15 AM,64.4,56.8,76,29.81,10.0,NW,8.1,-,N/A,,Overcast,320,2012-10-01 05:15:00
12:35 AM,64.4,56.7,76,29.81,10.0,NW,10.4,-,N/A,,Overcast,320,2012-10-01 05:35:00
1:15 AM,64.4,56.3,75,29.80,10.0,NNW,10.4,-,N/A,,Overcast,330,2012-10-01 06:15:00
1:35 AM,64.0,56.3,76,29.80,10.0,NW,9.2,16.1,N/A,,Overcast,320,2012-10-01 06:35:00
1:55 AM,63.1,55.9,77,29.79,10.0,NW,9.2,-,N/A,,Overcast,320,2012-10-01 06:55:00
2:35 AM,61.7,55.8,81,29.80,10.0,NW,6.9,-,N/A,,Clear,320,2012-10-01 07:35:00
2:55 AM,61.3,55.6,81,29.80,10.0,NW,6.9,-,N/A,,Clear,320,2012-10-01 07:55:00
3:15 AM,61.0,55.4,82,29.80,10.0,NW,5.8,-,N/A,,Clear,320,2012-10-01 08:15:00
3:35 AM,60.6,55.2,82,29.80,10.0,NW,4.6,-,N/A,,Clear,310,2012-10-01 08:35:00
4:15 AM,59.0,54.7,86,29.81,10.0,WNW,4.6,-,N/A,,Clear,300,2012-10-01 09:15:00
4:35 AM,59.0,55.0,87,29.80,10.0,NW,3.5,-,N/A,,Clear,310,2012-10-01 09:35:00
4:55 AM,58.3,54.5,87,29.80,10.0,WNW,4.6,-,N/A,,Clear,290,2012-10-01 09:55:00
5:15 AM,57.6,54.0,88,29.81,10.0,WNW,3.5,-,N/A,,Clear,300,2012-10-01 10:15:00
5:35 AM,57.4,55.0,92,29.81,10.0,West,3.5,-,N/A,,Clear,280,2012-10-01 10:35:00
5:55 AM,56.7,54.5,92,29.81,10.0,Calm,Calm,-,N/A,,Clear,0,2012-10-01 10:55:00
6:15 AM,56.3,54.0,92,29.82,10.0,West,3.5,-,N/A,,Clear,270,2012-10-01 11:15:00
6:35 AM,55.8,53.4,92,29.82,10.0,West,3.5,-,N/A,,Clear,280,2012-10-01 11:35:00
7:15 AM,55.4,53.6,94,29.83,10.0,West,3.5,-,N/A,,Clear,270,2012-10-01 12:15:00
7:35 AM,55.6,54.1,95,29.83,7.0,West,3.5,-,N/A,,Clear,270,2012-10-01 12:35:00
8:15 AM,60.1,58.5,94,29.83,10.0,Calm,Calm,-,N/A,,Clear,0,2012-10-01 13:15:00
8:35 AM,62.6,57.7,84,29.84,10.0,West,3.5,-,N/A,,Clear,270,2012-10-01 13:35:00
8:55 AM,64.6,57.2,77,29.85,10.0,WNW,4.6,-,N/A,,Clear,300,2012-10-01 13:55:00
9:15 AM,67.1,57.2,70,29.85,10.0,WNW,3.5,-,N/A,,Clear,300,2012-10-01 14:15:00
9:35 AM,68.5,56.1,64,29.86,10.0,NW,6.9,-,N/A,,Clear,310,2012-10-01 14:35:00
9:55 AM,70.7,55.4,58,29.86,10.0,WNW,8.1,-,N/A,,Clear,300,2012-10-01 14:55:00
10:15 AM,72.5,54.7,53,29.86,10.0,WNW,11.5,-,N/A,,Clear,290,2012-10-01 15:15:00
10:35 AM,74.3,55.4,52,29.86,10.0,NW,9.2,-,N/A,,Clear,310,2012-10-01 15:35:00
10:55 AM,75.2,55.4,50,29.86,10.0,WNW,10.4,-,N/A,,Clear,300,2012-10-01 15:55:00
11:15 AM,76.3,56.7,51,29.85,10.0,WNW,10.4,19.6,N/A,,Clear,300,2012-10-01 16:15:00
11:35 AM,77.2,56.3,48,29.85,10.0,NW,13.8,20.7,N/A,,Clear,310,2012-10-01 16:35:00
12:15 PM,78.8,54.0,42,29.83,10.0,NNW,8.1,17.3,N/A,,Clear,330,2012-10-01 17:15:00
12:35 PM,79.7,54.3,41,29.82,10.0,NW,11.5,19.6,N/A,,Clear,320,2012-10-01 17:35:00
1:15 PM,81.5,51.8,36,29.81,10.0,NW,12.7,18.4,N/A,,Clear,320,2012-10-01 18:15:00
1:35 PM,81.7,51.1,34,29.80,10.0,NW,12.7,23.0,N/A,,Clear,320,2012-10-01 18:35:00
1:55 PM,82.0,51.6,35,29.80,10.0,WNW,15.0,24.2,N/A,,Clear,290,2012-10-01 18:55:00
2:15 PM,83.3,52.7,35,29.79,10.0,WNW,12.7,20.7,N/A,,Clear,300,2012-10-01 19:15:00
2:55 PM,82.8,51.4,34,29.78,10.0,NW,19.6,25.3,N/A,,Clear,310,2012-10-01 19:55:00
3:15 PM,83.3,51.1,33,29.78,10.0,NW,13.8,21.9,N/A,,Clear,320,2012-10-01 20:15:00
3:35 PM,83.5,50.5,32,29.78,10.0,NW,11.5,18.4,N/A,,Clear,320,2012-10-01 20:35:00
3:55 PM,83.5,50.9,32,29.78,10.0,WNW,11.5,23.0,N/A,,Clear,300,2012-10-01 20:55:00
4:15 PM,83.5,50.0,31,29.78,10.0,NW,13.8,19.6,N/A,,Clear,320,2012-10-01 21:15:00
4:35 PM,83.3,49.1,30,29.78,10.0,NNW,10.4,21.9,N/A,,Clear,340,2012-10-01 21:35:00
4:55 PM,83.3,49.5,31,29.78,10.0,NNW,12.7,16.1,N/A,,Clear,330,2012-10-01 21:55:00
5:15 PM,82.6,49.5,31,29.78,10.0,NW,9.2,18.4,N/A,,Clear,320,2012-10-01 22:15:00
5:35 PM,82.4,50.0,32,29.77,10.0,NW,6.9,19.6,N/A,,Clear,310,2012-10-01 22:35:00
5:55 PM,80.6,50.2,35,29.77,10.0,WNW,8.1,-,N/A,,Clear,300,2012-10-01 22:55:00
6:15 PM,80.6,51.1,36,29.78,10.0,WNW,9.2,-,N/A,,Clear,300,2012-10-01 23:15:00
6:35 PM,79.2,51.1,37,29.78,10.0,WNW,6.9,-,N/A,,Clear,300,2012-10-01 23:35:00
6:55 PM,76.5,52.5,43,29.78,10.0,West,4.6,-,N/A,,Clear,280,2012-10-01 23:55:00
7:15 PM,73.9,53.4,49,29.79,10.0,West,5.8,-,N/A,,Clear,280,2012-10-02 00:15:00
7:35 PM,72.5,53.2,51,29.80,10.0,West,3.5,-,N/A,,Clear,270,2012-10-02 00:35:00
7:55 PM,70.7,52.7,53,29.80,10.0,Calm,Calm,-,N/A,,Clear,0,2012-10-02 00:55:00
8:15 PM,69.1,53.8,58,29.81,10.0,Calm,Calm,-,N/A,,Clear,0,2012-10-02 01:15:00
8:35 PM,68.2,55.4,64,29.82,10.0,Calm,Calm,-,N/A,,Clear,0,2012-10-02 01:35:00
8:55 PM,65.7,52.0,61,29.82,10.0,Calm,Calm,-,N/A,,Clear,0,2012-10-02 01:55:00
9:15 PM,64.2,55.6,73,29.83,10.0,Calm,Calm,-,N/A,,Clear,0,2012-10-02 02:15:00
9:35 PM,63.5,55.6,75,29.83,10.0,Calm,Calm,-,N/A,,Clear,0,2012-10-02 02:35:00
9:55 PM,63.5,53.2,69,29.83,10.0,West,3.5,-,N/A,,Clear,280,2012-10-02 02:55:00
10:15 PM,64.4,52.9,66,29.84,10.0,West,3.5,-,N/A,,Clear,280,2012-10-02 03:15:00
10:35 PM,65.5,54.3,67,29.84,10.0,West,4.6,-,N/A,,Clear,280,2012-10-02 03:35:00
10:55 PM,65.8,54.9,68,29.85,10.0,West,4.6,-,N/A,,Clear,280,2012-10-02 03:55:00
11:15 PM,65.7,55.2,69,29.84,10.0,West,3.5,-,N/A,,Clear,270,2012-10-02 04:15:00
11:35 PM,65.8,55.8,70,29.85,10.0,West,3.5,-,N/A,,Clear,270,2012-10-02 04:35:00
11:55 PM,64.2,53.6,68,29.85,10.0,Calm,Calm,-,N/A,,Clear,0,2012-10-02 04:55:00